Time,TemperatureF,DewpointF,PressureIn,WindDirection,WindDirectionDegrees,WindSpeedMPH,WindSpeedGustMPH,Humidity,HourlyPrecipIn,Conditions,Clouds,dailyrainin,SoftwareType,DateUTC
2013-08-11 00:11:00,68.8,66.0,30.07,NW,317,0.0,0.0,92,0.00,,,0.01,weatherlink.com 1.10,2013-08-11 04:11:00,
2013-08-11 00:26:00,68.5,66.0,30.07,NW,317,0.0,0.0,92,0.00,,,0.00,weatherlink.com 1.10,2013-08-11 04:26:00,
2013-08-11 00:41:00,68.4,66.0,30.07,NW,317,0.0,0.0,92,0.00,,,0.00,weatherlink.com 1.10,2013-08-11 04:41:00,
2013-08-11 00:56:00,68.2,66.0,30.06,NW,317,0.0,0.0,91,0.00,,,0.00,weatherlink.com 1.10,2013-08-11 04:56:00,
2013-08-11 01:11:00,67.9,65.0,30.06,NW,317,0.0,0.0,91,0.00,,,0.00,weatherlink.com 1.10,2013-08-11 05:11:00,
2013-08-11 01:26:00,68.1,65.0,30.05,NW,317,0.0,0.0,91,0.00,,,0.00,weatherlink.com 1.10,2013-08-11 05:26:00,
2013-08-11 01:41:00,68.6,66.0,30.05,NW,317,0.0,0.0,92,0.00,,,0.00,weatherlink.com 1.10,2013-08-11 05:41:00,
2013-08-11 01:56:00,68.6,66.0,30.06,NW,317,0.0,0.0,92,0.00,,,0.00,weatherlink.com 1.10,2013-08-11 05:56:00,
2013-08-11 02:26:00,68.8,67.0,30.06,NW,317,0.0,0.0,93,0.00,,,0.00,weatherlink.com 1.10,2013-08-11 06:26:00,
2013-08-11 02:41:00,69.2,68.0,30.06,NW,317,0.0,0.0,94,0.00,,,0.00,weatherlink.com 1.10,2013-08-11 06:41:00,
2013-08-11 03:26:00,69.6,68.0,30.06,NW,317,0.0,0.0,94,0.00,,,0.00,weatherlink.com 1.10,2013-08-11 07:26:00,
2013-08-11 03:41:00,69.4,68.0,30.06,NW,317,0.0,0.0,94,0.00,,,0.00,weatherlink.com 1.10,2013-08-11 07:41:00,
2013-08-11 04:11:00,69.6,68.0,30.06,NW,317,0.0,0.0,95,0.00,,,0.00,weatherlink.com 1.10,2013-08-11 08:11:00,
2013-08-11 04:26:00,69.8,68.0,30.06,NW,317,0.0,0.0,95,0.00,,,0.00,weatherlink.com 1.10,2013-08-11 08:26:00,
2013-08-11 04:56:00,70.5,69.0,30.07,NW,317,0.0,0.0,96,0.00,,,0.00,weatherlink.com 1.10,2013-08-11 08:56:00,
2013-08-11 05:11:00,70.7,70.0,30.07,NW,317,0.0,0.0,96,0.00,,,0.00,weatherlink.com 1.10,2013-08-11 09:11:00,
2013-08-11 05:26:00,70.7,69.0,30.07,NW,317,0.0,0.0,95,0.00,,,0.00,weatherlink.com 1.10,2013-08-11 09:26:00,
2013-08-11 05:41:00,70.3,69.0,30.08,NW,317,0.0,0.0,95,0.00,,,0.00,weatherlink.com 1.10,2013-08-11 09:41:00,
2013-08-11 05:56:00,69.9,69.0,30.08,NW,317,0.0,0.0,95,0.00,,,0.00,weatherlink.com 1.10,2013-08-11 09:56:00,
2013-08-11 06:11:00,69.9,69.0,30.08,NW,317,0.0,0.0,95,0.00,,,0.00,weatherlink.com 1.10,2013-08-11 10:11:00,
2013-08-11 06:41:00,70.1,69.0,30.09,NW,317,0.0,0.0,95,0.00,,,0.00,weatherlink.com 1.10,2013-08-11 10:41:00,
2013-08-11 07:11:00,70.2,69.0,30.09,NW,317,0.0,0.0,95,0.00,,,0.00,weatherlink.com 1.10,2013-08-11 11:11:00,
2013-08-11 07:26:00,70.5,69.0,30.09,NW,317,0.0,0.0,95,0.00,,,0.00,weatherlink.com 1.10,2013-08-11 11:26:00,
2013-08-11 07:41:00,70.6,69.0,30.09,NW,317,0.0,0.0,95,0.00,,,0.00,weatherlink.com 1.10,2013-08-11 11:41:00,
2013-08-11 07:56:00,71.0,70.0,30.09,NW,317,0.0,0.0,95,0.00,,,0.00,weatherlink.com 1.10,2013-08-11 11:56:00,
2013-08-11 08:11:00,71.5,70.0,30.09,NW,317,0.0,0.0,96,0.00,,,0.00,weatherlink.com 1.10,2013-08-11 12:11:00,
2013-08-11 08:57:00,72.9,71.0,30.11,NW,317,0.0,0.0,95,0.00,,,0.00,weatherlink.com 1.10,2013-08-11 12:57:00,
2013-08-11 09:12:00,73.0,71.0,30.10,NW,317,0.0,0.0,94,0.00,,,0.00,weatherlink.com 1.10,2013-08-11 13:12:00,
2013-08-11 09:27:00,73.5,72.0,30.10,NW,317,0.0,0.0,94,0.00,,,0.00,weatherlink.com 1.10,2013-08-11 13:27:00,
2013-08-11 09:42:00,73.9,72.0,30.10,NW,317,0.0,0.0,94,0.00,,,0.00,weatherlink.com 1.10,2013-08-11 13:42:00,
2013-08-11 09:57:00,74.0,72.0,30.10,NW,317,0.0,0.0,92,0.00,,,0.00,weatherlink.com 1.10,2013-08-11 13:57:00,
2013-08-11 10:12:00,75.0,72.0,30.10,NW,317,0.0,0.0,89,0.00,,,0.00,weatherlink.com 1.10,2013-08-11 14:12:00,
2013-08-11 10:27:00,76.0,72.0,30.10,NW,317,0.0,0.0,88,0.00,,,0.00,weatherlink.com 1.10,2013-08-11 14:27:00,
2013-08-11 10:42:00,76.1,71.0,30.10,NW,317,0.0,0.0,85,0.00,,,0.00,weatherlink.com 1.10,2013-08-11 14:42:00,
2013-08-11 10:57:00,76.4,71.0,30.11,NW,317,0.0,0.0,83,0.00,,,0.00,weatherlink.com 1.10,2013-08-11 14:57:00,
2013-08-11 11:27:00,76.2,71.0,30.11,NW,317,0.0,0.0,84,0.00,,,0.00,weatherlink.com 1.10,2013-08-11 15:27:00,
2013-08-11 11:42:00,76.6,72.0,30.10,NW,317,0.0,0.0,84,0.00,,,0.00,weatherlink.com 1.10,2013-08-11 15:42:00,
2013-08-11 12:12:00,78.0,71.0,30.10,NW,317,1.0,1.0,79,0.00,,,0.00,weatherlink.com 1.10,2013-08-11 16:12:00,
2013-08-11 12:27:00,79.0,72.0,30.09,NW,317,0.0,1.0,78,0.00,,,0.00,weatherlink.com 1.10,2013-08-11 16:27:00,
2013-08-11 12:42:00,79.5,71.0,30.09,NW,317,0.0,1.0,76,0.00,,,0.00,weatherlink.com 1.10,2013-08-11 16:42:00,
2013-08-11 12:57:00,79.7,71.0,30.09,SW,221,0.0,0.0,75,0.00,,,0.00,weatherlink.com 1.10,2013-08-11 16:57:00,
2013-08-11 13:27:00,78.3,71.0,30.08,SW,221,0.0,0.0,79,0.00,,,0.00,weatherlink.com 1.10,2013-08-11 17:27:00,
2013-08-11 13:42:00,78.4,72.0,30.08,SW,221,0.0,0.0,80,0.00,,,0.00,weatherlink.com 1.10,2013-08-11 17:42:00,
2013-08-11 13:57:00,79.3,72.0,30.08,SW,221,0.0,1.0,78,0.00,,,0.00,weatherlink.com 1.10,2013-08-11 17:57:00,
2013-08-11 14:27:00,80.7,72.0,30.08,West,270,0.0,2.0,74,0.00,,,0.00,weatherlink.com 1.10,2013-08-11 18:27:00,
2013-08-11 14:42:00,81.7,70.0,30.07,West,270,0.0,1.0,68,0.00,,,0.00,weatherlink.com 1.10,2013-08-11 18:42:00,
2013-08-11 15:12:00,81.9,70.0,30.06,SW,234,1.0,1.0,68,0.00,,,0.00,weatherlink.com 1.10,2013-08-11 19:12:00,
2013-08-11 15:27:00,81.9,70.0,30.06,ESE,120,0.0,2.0,68,0.00,,,0.00,weatherlink.com 1.10,2013-08-11 19:27:00,
2013-08-11 15:42:00,81.7,71.0,30.05,ESE,123,0.0,0.0,71,0.00,,,0.00,weatherlink.com 1.10,2013-08-11 19:42:00,
2013-08-11 15:57:00,81.7,71.0,30.05,ESE,123,0.0,2.0,71,0.00,,,0.00,weatherlink.com 1.10,2013-08-11 19:57:00,
2013-08-11 16:12:00,80.5,70.0,30.05,ESE,123,0.0,1.0,71,0.00,,,0.00,weatherlink.com 1.10,2013-08-11 20:12:00,
2013-08-11 16:27:00,80.2,71.0,30.05,ESE,123,0.0,0.0,74,0.00,,,0.00,weatherlink.com 1.10,2013-08-11 20:27:00,
2013-08-11 16:42:00,79.2,71.0,30.05,ESE,123,0.0,0.0,75,0.00,,,0.00,weatherlink.com 1.10,2013-08-11 20:42:00,
2013-08-11 16:57:00,78.6,71.0,30.04,ESE,123,0.0,0.0,77,0.00,,,0.00,weatherlink.com 1.10,2013-08-11 20:57:00,
2013-08-11 17:12:00,79.0,71.0,30.04,ESE,123,0.0,0.0,77,0.00,,,0.00,weatherlink.com 1.10,2013-08-11 21:12:00,
2013-08-11 17:42:00,79.6,71.0,30.03,ESE,123,0.0,0.0,76,0.00,,,0.00,weatherlink.com 1.10,2013-08-11 21:42:00,
2013-08-11 18:12:00,79.4,71.0,30.03,SSW,205,0.0,1.0,75,0.00,,,0.00,weatherlink.com 1.10,2013-08-11 22:12:00,
2013-08-11 18:27:00,79.2,71.0,30.02,ENE,78,0.0,3.0,76,0.00,,,0.00,weatherlink.com 1.10,2013-08-11 22:27:00,
2013-08-11 18:42:00,78.9,71.0,30.02,SSW,198,0.0,1.0,76,0.00,,,0.00,weatherlink.com 1.10,2013-08-11 22:42:00,
2013-08-11 18:57:00,78.6,71.0,30.02,SSW,196,0.0,1.0,77,0.00,,,0.00,weatherlink.com 1.10,2013-08-11 22:57:00,
2013-08-11 19:28:00,78.0,70.0,30.02,SSW,206,0.0,2.0,77,0.00,,,0.00,weatherlink.com 1.10,2013-08-11 23:28:00,
2013-08-11 19:43:00,77.6,71.0,30.02,SSW,206,0.0,1.0,79,0.00,,,0.00,weatherlink.com 1.10,2013-08-11 23:43:00,
2013-08-11 19:58:00,77.1,71.0,30.02,SSW,206,0.0,0.0,80,0.00,,,0.00,weatherlink.com 1.10,2013-08-11 23:58:00,
2013-08-11 20:13:00,76.4,71.0,30.02,SSW,206,0.0,0.0,82,0.00,,,0.00,weatherlink.com 1.10,2013-08-12 00:13:00,
2013-08-11 20:28:00,75.7,71.0,30.02,SSW,206,0.0,0.0,84,0.00,,,0.00,weatherlink.com 1.10,2013-08-12 00:28:00,
2013-08-11 20:58:00,74.1,70.0,30.03,SSW,206,0.0,0.0,88,0.00,,,0.00,weatherlink.com 1.10,2013-08-12 00:58:00,
2013-08-11 21:13:00,73.3,70.0,30.04,SSW,206,0.0,0.0,89,0.00,,,0.00,weatherlink.com 1.10,2013-08-12 01:13:00,
2013-08-11 21:28:00,73.1,70.0,30.03,SSW,206,0.0,0.0,89,0.00,,,0.00,weatherlink.com 1.10,2013-08-12 01:28:00,
2013-08-11 21:58:00,73.2,70.0,30.04,WSW,240,0.0,2.0,89,0.00,,,0.00,weatherlink.com 1.10,2013-08-12 01:58:00,
2013-08-11 22:13:00,73.2,70.0,30.03,West,281,0.0,1.0,88,0.00,,,0.00,weatherlink.com 1.10,2013-08-12 02:13:00,
2013-08-11 22:28:00,72.9,69.0,30.04,West,281,0.0,0.0,88,0.00,,,0.00,weatherlink.com 1.10,2013-08-12 02:28:00,
2013-08-11 23:13:00,72.1,69.0,30.04,West,281,0.0,0.0,89,0.00,,,0.00,weatherlink.com 1.10,2013-08-12 03:13:00,
2013-08-11 23:28:00,71.8,69.0,30.04,West,281,0.0,0.0,89,0.00,,,0.00,weatherlink.com 1.10,2013-08-12 03:28:00,
2013-08-11 23:43:00,71.7,69.0,30.03,West,281,0.0,0.0,90,0.00,,,0.00,weatherlink.com 1.10,2013-08-12 03:43:00,
2013-08-11 23:58:00,72.0,69.0,30.03,West,271,0.0,2.0,90,0.00,,,0.00,weatherlink.com 1.10,2013-08-12 03:58:00,